C/2021 O3 ( PanSTARRS )

Japanese version
Home page
Updated on December 1, 2021

---------------------------------------------------------------------

* Profile

Discovery Date July 26, 2021
Magnitude 19.8 mag
Discoverer Pan-STARRS 1 telescope (Haleakala)

* Pictures

* Orbital Elements

Epoch 2022 Apr. 11.0 TT = JDT 2459680.5
T 2022 Apr. 21.05134 TT                                 Rudenko
q   0.2873059            (2000.0)            P               Q
z  -0.0003113      Peri.  299.99366     -0.56807712     -0.81245666
 +/-0.0000104      Node   189.01872     +0.64615208     -0.53902138
e   1.0000894      Incl.   56.79315     -0.50968213     +0.22219389
From 458 observations 2021 July 26-Oct. 26, mean residual 0".4.

* Finding Charts

* Magnitudes Graph

        m1 = 10.0 + 5 log d + 10.0 log r

---------------------------------------------------------------------

The orbital elements are published on M.P.E.C. 2021-U109.
The charts are made with StellaNavigator Ver.10 (AstroArts).
The magnitudes graphs are made with Comet for Windows.

---------------------------------------------------------------------

Copyright(C) Seiichi Yoshida (comet@aerith.net). All rights reserved.